Terminal Aerodrome Forecast
Issued by NWS

Home | Current Version | Previous Version | Text Only | Print | Product List | Glossary On
Versions: 1 2 3 4 5 6 7 8 9 10 11 12 13 14 15 16 17 18 19 20 21 22 23 24 25 26 27 28 29 30 31 32 33 34 35 36 37 38 39 40 41 42 43 44 45 46 47 48 49 50
000
FTUS43 KMKX 250045 AAA
TAFENW
TAF AMD
KENW 250045Z 2501/2524 28013G22KT P6SM SCT060
     FM250120 28025G34KT P6SM -SHRA VCTS SCT035 BKN050CB
     FM250230 27012G18KT P6SM VCSH BKN050
     FM250400 27009KT P6SM SCT045
     FM251700 28012G20KT P6SM BKN050
     FM252100 27013G22KT P6SM VCSH BKN050=

USA.gov is the U.S. government's official web portal to all federal, state and local government web resources and services.